"Pseudo-MPEC" for P110e38

Created 2020 May 26 11:07:26 UT using Find_Orb

Click here for an explanation of pseudo-MPECs

 
 Astrometry: 
     P110e38  C2020 05 15H7;Bj`?.E]w#mx0(e6%([2Astrometry/C'Clmkredacted;]bgMF51
     P110e38  C2020 05 15I-\nD3KclickcZIMchcBJxTZr#Coo6:-S(hereZ5pJY*uvdy#'gfF51
     P110e38  C2020 05 15I8dXr'*OJy;:for,HB@J17NEAexplanation#u_ygDej\*H.e-7iF51

Station data:
(F51) Pan-STARRS 1, Haleakala  (N20.707235 W156.255910)  US/Hawaii.
   Observers N. Primak, A. Schultz, S. Watters, J. Thiel, T. Goggia. Measurer
   PS1 Science Consortium. 1.8-m Ritchey-Chrétien + CCD.

Orbital elements:  P110e38
   Perihelion 2020 May 28.159345 +/- 46.8 TT =  3:49:27 (JD 2458997.659345)
Epoch 2020 May 15.0 TT = JDT 2458984.5   Earth MOID: 0.3896   AutoNEOCP
M 356.73124620 +/- 20               (J2000 ecliptic)
n   0.24839790 +/- 0.255            Peri.  210.16745 +/- 80
a   2.50632528 +/- 1.72             Node    30.99931 +/- 48
e   0.4487943 +/- 0.256             Incl.   13.57764 +/- 7
P   3.97                   H 22.2   G  0.15   U 11.8  SR
q 1.38150077 +/- 0.337    Q 3.63114979 +/- 45.9
From 3 observations 2020 May 15 (45.0 min); mean residual 0".07
Residuals in arcseconds: 
200515 F51  .04+  .02-    200515 F51  .12-  .06+    200515 F51  .10+  .03-    

Ephemerides (geocentric):
Date (UTC) HH   RA              Dec         delta   r     elong  mag " sig PA
---- -- -- --  -------------   -----------  ------ ------ -----  --- ---- ---
2020 05 26 11  14 07 52.901   -36 47 18.43  .41209 1.3816 148.6 22.1  38d  20
2020 05 26 12  14 07 52.053   -36 48 20.77  .41218 1.3816 148.5 22.1  38d  20
2020 05 26 13  14 07 51.212   -36 49 23.04  .41228 1.3816 148.5 22.1  38d  20
2020 05 26 14  14 07 50.377   -36 50 25.27  .41237 1.3816 148.5 22.1  38d  20
2020 05 26 15  14 07 49.549   -36 51 27.43  .41247 1.3816 148.4 22.1  38d  20
2020 05 26 16  14 07 48.727   -36 52 29.54  .41256 1.3816 148.4 22.1  38d  20
2020 05 26 17  14 07 47.911   -36 53 31.58  .41266 1.3816 148.3 22.1  38d  20
2020 05 26 18  14 07 47.101   -36 54 33.58  .41276 1.3816 148.3 22.1  38d  20
2020 05 26 19  14 07 46.298   -36 55 35.51  .41285 1.3816 148.3 22.1  38d  20
2020 05 26 20  14 07 45.501   -36 56 37.39  .41295 1.3816 148.2 22.1  38d  20
2020 05 26 21  14 07 44.710   -36 57 39.21  .41305 1.3816 148.2 22.1  38d  20
2020 05 26 22  14 07 43.926   -36 58 40.97  .41314 1.3816 148.2 22.1  38d  20
2020 05 26 23  14 07 43.148   -36 59 42.68  .41324 1.3816 148.1 22.1  38d  20
2020 05 27 00  14 07 42.376   -37 00 44.33  .41334 1.3815 148.1 22.1  38d  20
2020 05 27 01  14 07 41.611   -37 01 45.92  .41343 1.3815 148.1 22.1  38d  20
2020 05 27 02  14 07 40.852   -37 02 47.46  .41353 1.3815 148.0 22.1  38d  20
2020 05 27 03  14 07 40.100   -37 03 48.94  .41363 1.3815 148.0 22.1  38d  20
2020 05 27 04  14 07 39.354   -37 04 50.36  .41373 1.3815 148.0 22.1  38d  20
2020 05 27 05  14 07 38.614   -37 05 51.73  .41383 1.3815 147.9 22.1  38d  20
2020 05 27 06  14 07 37.881   -37 06 53.03  .41393 1.3815 147.9 22.1  38d  20
2020 05 27 07  14 07 37.154   -37 07 54.29  .41403 1.3815 147.8 22.1  38d  20
2020 05 27 08  14 07 36.434   -37 08 55.48  .41412 1.3815 147.8 22.1  38d  20
2020 05 27 09  14 07 35.720   -37 09 56.62  .41422 1.3815 147.8 22.1  38d  20
2020 05 27 10  14 07 35.013   -37 10 57.70  .41432 1.3815 147.7 22.1  38d  20
2020 05 27 11  14 07 34.312   -37 11 58.72  .41442 1.3815 147.7 22.1  38d  20
2020 05 27 12  14 07 33.617   -37 12 59.68  .41452 1.3815 147.7 22.1  38d  20
2020 05 27 13  14 07 32.929   -37 14 00.59  .41462 1.3815 147.6 22.1  38d  20
2020 05 27 14  14 07 32.247   -37 15 01.45  .41472 1.3815 147.6 22.1  38d  20
2020 05 27 15  14 07 31.572   -37 16 02.24  .41482 1.3815 147.6 22.1  38d  20
2020 05 27 16  14 07 30.904   -37 17 02.98  .41493 1.3815 147.5 22.1  38d  20
2020 05 27 17  14 07 30.241   -37 18 03.66  .41503 1.3815 147.5 22.1  38d  20
2020 05 27 18  14 07 29.586   -37 19 04.28  .41513 1.3815 147.5 22.1  38d  20
2020 05 27 19  14 07 28.937   -37 20 04.85  .41523 1.3815 147.4 22.1  38d  20
2020 05 27 20  14 07 28.294   -37 21 05.36  .41533 1.3815 147.4 22.1  38d  20
2020 05 27 21  14 07 27.658   -37 22 05.82  .41543 1.3815 147.4 22.1  38d  20
2020 05 27 22  14 07 27.029   -37 23 06.21  .41554 1.3815 147.3 22.1  38d  20
2020 05 27 23  14 07 26.406   -37 24 06.55  .41564 1.3815 147.3 22.1  38d  20
2020 05 28 00  14 07 25.789   -37 25 06.84  .41574 1.3815 147.2 22.1  38d  20
2020 05 28 01  14 07 25.179   -37 26 07.06  .41584 1.3815 147.2 22.1  38d  20
2020 05 28 02  14 07 24.576   -37 27 07.23  .41595 1.3815 147.2 22.1  38d  20
2020 05 28 03  14 07 23.979   -37 28 07.34  .41605 1.3815 147.1 22.1  38d  20
2020 05 28 04  14 07 23.389   -37 29 07.40  .41615 1.3815 147.1 22.1  38d  20
2020 05 28 05  14 07 22.806   -37 30 07.40  .41626 1.3815 147.1 22.1  38d  20
2020 05 28 06  14 07 22.229   -37 31 07.34  .41636 1.3815 147.0 22.1  38d  20
2020 05 28 07  14 07 21.659   -37 32 07.22  .41646 1.3815 147.0 22.1  38d  20
2020 05 28 08  14 07 21.095   -37 33 07.05  .41657 1.3815 147.0 22.1  38d  20
2020 05 28 09  14 07 20.538   -37 34 06.82  .41667 1.3815 146.9 22.1  38d  20
2020 05 28 10  14 07 19.987   -37 35 06.54  .41678 1.3815 146.9 22.1  38d  20